Погода в Семиньяке

Индонезия     8°42′31″S   115°10′10″E
темп.,
°C
ветер,
м/с
пор.,
м/с
влажн.,
%
обл.,
%
осадки,
мм/ч
давл.,
гПа
погр.,
м
27 января, ср
ср2723:00+28зсз5777100 2.3 1008635
02:00+27з798299 10.1 1006640
05:00+27зсз7982100 3.4 1006672
08:00+27зсз6882100 6.0 1007600
11:00+28з6879100 4.0 1007719
14:00+28з5775100 4.3 1005667
17:00+28з687798 2.3 1004673
20:00+28з797798 5.7 1005646
28 января, чт
чт2823:00+28зсз687697 4.0 1007580
02:00+28зсз577793 7.3 1006555
05:00+28зсз577787 1.3 1005722
08:00+28зсз467685 1.5 1007716
11:00+28з797988 2.5 1007578
14:00+28з9117892 5.8 1005767
17:00+28з91180100 4.1 1005877
20:00+27з5682100 4.8 1006469
29 января, пт
пт2923:00+27с2281100 2.1 1008129
02:00+27ссз2278100 3.1 1006228
05:00+27зсз348090 1.9 1006330
08:00+27зсз457995 5.4 1007531
11:00+28з797896 1.6 1008964
14:00+28з10128098 3.5 10051048
17:00+27з101282100 3.1 10051033
20:00+27зсз111385100 7.9 10071026
30 января, сб
сб3023:00+26з101289100 4.7 1008835
02:00+25зсз91195100 21.5 1006604
05:00+26зсз121587100 35.8 10061074
08:00+26з101285100 38.1 1008925
11:00+27з91282100 4.1 10091059
14:00+28з91373100 5.6 10061351
17:00+28з71075100 1.7 10061096
20:00+28з7978100 4.2 1008959
31 января, вс
вс3123:00+28з6878100 1.6 1009765
02:00+27зсз6879100 1.7 1008789
05:00+27зсз4580100 0.8 1007447
08:00+27зсз4579100 2.4 1009425
11:00+28з687471 0.4 1010963
14:00+26зсз11138860 3.8 1007841
17:00+27зсз81184100 4.2 1007988
20:00+28зсз91279100 5.1 10081143